Search for airport 
image banner adimage banner adimage banner ad
image banner ad

36CL - Tri-City Hospital

Located in Oceanside, United States

ICAO - 36CL, IATA -

Data provided by Airmate  

General information

Coordinates: N33°11'7" W117°17'28"
Elevation is 260 feet MSL.
Magnetic variation is 13° East
View others Airports in California

Operational data

Special qualification required
Current time UTC:
Current local time:
Weather at : KCRQ - Mc Clellan-Palomar ( 6 km )
METAR: KCRQ 210153Z 20003KT 10SM CLR 20/16 A2991 RMK AO2 SLP128 T02000161
TAF: KCRQ 202324Z 2100/2124 VRB04KT P6SM FEW008 FM210500 VRB04KT P6SM BKN008 FM211600 VRB04KT P6SM FEW010 FM212100 26007KT P6SM SKC
View NOTAMs / SUP AIP / TFR affecting this airport [VIEW]
Communications frequencies: [VIEW]

Runways:

Airport contact information

Address: Oceanside United States

Satellite view of 36CL